User: anonymous
Location: Mississauga
(43.5802°N, 79.6166°W)
Time: 07:40:54
(UTC-04:00)
Language:

Cosmos 1437 Rocket - Orbit

View from above orbital plane
View from above orbital plane
View from above satellite
View from above satellite

Ground track
Ground track

The orbit data is extracted from the following two-line orbital elements,

1 13771U 83003B   14260.07362236  .00002718  00000-0  18013-3 0  1216
2 13771 081.1543 078.9424 0032006 088.1764 272.3125 15.06548671722389
Epoch (UTC): 17 September 2014 01:46:00
Eccentricity: 0.0032006
inclination: 81.1543°
perigee height: 524 km
apogee height: 569 km
right ascension of ascending node: 78.9424°
argument of perigee: 88.1764°
revolutions per day: 15.06548671
mean anomaly at epoch: 272.3125°
orbit number at epoch: 72238

The dashed part of the orbit path shows where the satellite is in the earth's shadow,  

DLR